Other Public Products
Issued by NWS Charleston, SC

Current Version | Previous Version | Graphics & Text | Print | Product List | Glossary On
Versions: 1 2 3 4 5 6 7 8 9 10 11 12 13 14 15 16 17 18 19 20 21 22 23 24 25 26 27 28 29 30 31 32 33 34 35 36 37 38 39 40 41 42 43 44 45 46 47 48 49 50
000 FPUS82 KCHS 231311 OPUCHS TEST...KCHS/KSAV Gateway Observations...TEST National Weather Service Charleston SC 800 AM EST THU FEB 23 2017 NOTE: "fair" indicates few or no clouds below 12,000 feet with no significant weather and/or obstructions to visibility. SCZ050-WAZ558-NCZ071-TXZ119-213-PAZ071-DCZ001-FLZ074-172-MI076- NYZ176-178-MAZ016-IL014-TNZ027-NJZ106-GAZ044-MD014-231400- ...Gateway Observations for Charleston International... CITY SKY/WX TMP DP RH WIND PRES REMARKS Chas Airport PTSUNNY 62 57 83 N7 29.88R Seattle CLOUDY 36 35 96 CALM 30.22S Charlotte MOSUNNY 56 53 90 N3 29.95R Dallas DFW PTCLDY 58 49 72 S12 29.62S Dallas Love PTCLDY 56 47 71 SE10 29.64R Philladelphia FOG 49 48 97 CALM 29.92R VSB 1/2 Wash National MOSUNNY 55 54 96 S6 29.91S Baltimore FOG 49 49 100 CALM 29.90S VSB 1/2 Miami CLOUDY 65 59 81 SW6 29.67R Detroit MOCLDY 55 53 93 SW13 29.69R FOG Newark FOG 44 43 96 SW6 29.91R VSB 1/4 Laguardia PTSUNNY 45 40 82 NE5 29.91R J F K FOG 43 43 100 S5 29.92R VSB 1/8 Boston Logan MOSUNNY 42 40 92 S6 29.87S Ft. Lauderdale CLOUDY 64 63 94 SW3 29.66R Chicago O`Hare PTCLDY 47 42 83 N6 29.73R Chicago Midway PTCLDY 49 43 80 N8 29.74R Houston Bush CLEAR 52 51 97 CALM 29.77R Houston Hobby CLEAR 56 54 93 CALM 29.77R Nashville PTCLDY 55 53 93 CALM 29.87R FOG Atlanta PTCLDY 56 55 97 E8 29.90R $$ GAZ044-118-TXZ119-213-NCZ071-DCZ001-MDZ014-506-PAZ021-071-NJZ106- NYZ176-178-MAZ106-OHZ011-021-055-MIZ076-KYZ091-ILZ014-INZ047- MNZ060-ONZ431-231400- ...Gateway Observations for Savannah International... CITY SKY/WX TMP DP RH WIND PRES REMARKS Savannah Arpt PTSUNNY 62 58 86 N10 29.85R Atlanta PTCLDY 56 55 97 E8 29.90R Charlotte MOSUNNY 56 53 90 N3 29.95R Dallas DFW PTCLDY 58 49 72 S12 29.62S Houston Bush CLEAR 52 51 97 CALM 29.77R Wash National MOSUNNY 55 54 96 S6 29.91S Wash Dulles MOSUNNY 55 52 89 S3 29.90S Baltimore FOG 49 49 100 CALM 29.90S VSB 1/2 Philadelphia FOG 49 48 97 CALM 29.92R VSB 1/2 Newark FOG 44 43 96 SW6 29.91R VSB 1/4 Laguardia PTSUNNY 45 40 82 NE5 29.91R J F K FOG 43 43 100 S5 29.92R VSB 1/8 Boston MOSUNNY 42 40 92 S6 29.87S Pittsburg CLOUDY 55 53 91 S3 29.81S Akron CLOUDY 57 53 86 SW13 29.78R FOG Cleveland CLOUDY 60 53 77 SW12 29.76R Cincinnati CLOUDY 59 56 89 S9 29.81S Columbus MOCLDY 56 55 99 S9 29.81R Detroit MOCLDY 55 53 93 SW13 29.69R FOG Chicago O`Hare PTCLDY 47 42 83 N6 29.73R Minneapolis CLOUDY 32 25 75 N14G21 29.89F WCI 22 Indianapolis PTCLDY 51 51 100 SW7 29.76S FOG Toronto Canada CLOUDY 55 54 94 SW15 29.61S $$

USA.gov is the U.S. government's official web portal to all federal, state and local government web resources and services.